KLM416 LCLK-ENBR

Flight info

Callsign KLM416
Flight time 4h 50m
Altitude 34000
Route PHA M31 GENOS DCT PEDER DCT EVENO DCT BENEM UN127 RIKSO DCT LMO DCT EVIVI/N0459F360 DCT OKANA DCT PARAK DCT VALPI DCT LATAG DCT BODLA DCT KOSEB DCT BADAB
Aircraft B739/M-SDE2E3FGHIRWXY/LB1

Departure

Time 2026-05-06 13:38
Airport Larnaca International Airport (LCLK)

Arrival

Time 2026-05-06 18:28
Airport Bergen Airport, Flesland (ENBR)
Time Latitude Longitude Altitude Speed Heading
2026-05-06 13:24 34.86876 33.60953 19 ft 0 kts 39°
2026-05-06 13:26 34.86875 33.60952 20 ft 2 kts 39°
2026-05-06 13:27 34.86854 33.60934 20 ft 4 kts 29°
2026-05-06 13:27 34.86835 33.60921 22 ft 4 kts 32°
2026-05-06 13:27 34.86816 33.60900 22 ft 4 kts 69°
2026-05-06 13:27 34.86815 33.60871 23 ft 4 kts 123°
2026-05-06 13:28 34.86832 33.60848 21 ft 4 kts 135°
2026-05-06 13:28 34.86837 33.60843 20 ft 1 kts 135°
2026-05-06 13:31 34.86836 33.60844 20 ft 1 kts 135°
2026-05-06 13:31 34.86820 33.60863 21 ft 7 kts 135°
2026-05-06 13:31 34.86769 33.60923 19 ft 12 kts 136°
2026-05-06 13:31 34.86707 33.60998 19 ft 13 kts 135°
2026-05-06 13:32 34.86644 33.61083 20 ft 14 kts 114°
2026-05-06 13:32 34.86683 33.61186 20 ft 15 kts 46°
2026-05-06 13:32 34.86765 33.61288 17 ft 19 kts 45°
2026-05-06 13:32 34.86861 33.61405 17 ft 20 kts 45°
2026-05-06 13:33 34.86959 33.61524 17 ft 21 kts 45°
2026-05-06 13:33 34.87062 33.61649 20 ft 21 kts 45°
2026-05-06 13:33 34.87165 33.61775 21 ft 22 kts 45°
2026-05-06 13:33 34.87286 33.61925 21 ft 25 kts 45°
2026-05-06 13:34 34.87413 33.62079 17 ft 26 kts 45°
2026-05-06 13:34 34.87537 33.62232 16 ft 25 kts 45°
2026-05-06 13:34 34.87660 33.62382 17 ft 24 kts 45°
2026-05-06 13:34 34.87776 33.62524 17 ft 23 kts 45°
2026-05-06 13:35 34.87886 33.62661 20 ft 22 kts 46°
2026-05-06 13:35 34.87994 33.62792 19 ft 22 kts 43°
2026-05-06 13:35 34.88100 33.62919 19 ft 21 kts 43°
2026-05-06 13:35 34.88203 33.63041 16 ft 20 kts 47°
2026-05-06 13:36 34.88301 33.63163 17 ft 20 kts 45°
2026-05-06 13:36 34.88396 33.63281 16 ft 19 kts 45°
2026-05-06 13:36 34.88436 33.63375 18 ft 12 kts 104°
2026-05-06 13:36 34.88387 33.63449 18 ft 11 kts 137°
2026-05-06 13:37 34.88325 33.63503 17 ft 11 kts 172°
2026-05-06 13:37 34.88259 33.63466 15 ft 11 kts 225°
2026-05-06 13:37 34.88183 33.63372 15 ft 38 kts 225°
2026-05-06 13:37 34.87812 33.62927 20 ft 110 kts 225°
2026-05-06 13:38 34.87118 33.62100 24 ft 167 kts 223°
2026-05-06 13:38 34.86210 33.61009 321 ft 194 kts 224°
2026-05-06 13:38 34.85229 33.59777 915 ft 208 kts 229°
2026-05-06 13:38 34.84260 33.58454 1725 ft 210 kts 226°
2026-05-06 13:39 34.83229 33.57116 2104 ft 231 kts 227°
2026-05-06 13:39 34.82050 33.55595 2360 ft 255 kts 227°
2026-05-06 13:39 34.80810 33.54000 3027 ft 261 kts 227°
2026-05-06 13:39 34.79571 33.52407 3803 ft 263 kts 227°
2026-05-06 13:40 34.78307 33.50783 4554 ft 267 kts 229°
2026-05-06 13:40 34.77014 33.49121 5233 ft 272 kts 228°
2026-05-06 13:40 34.75704 33.47440 5953 ft 277 kts 229°
2026-05-06 13:40 34.74369 33.45727 6658 ft 280 kts 229°
2026-05-06 13:41 34.73025 33.44003 7385 ft 282 kts 229°
2026-05-06 13:41 34.71673 33.42271 8124 ft 283 kts 229°
2026-05-06 13:41 34.70310 33.40525 8855 ft 285 kts 229°
2026-05-06 13:41 34.68951 33.38763 9583 ft 286 kts 233°
2026-05-06 13:42 34.68062 33.36634 10219 ft 284 kts 260°
2026-05-06 13:42 34.67927 33.34191 10500 ft 299 kts 274°
2026-05-06 13:42 34.68045 33.31579 10655 ft 320 kts 275°
2026-05-06 13:42 34.68197 33.28803 10825 ft 339 kts 275°
2026-05-06 13:43 34.68349 33.25866 10961 ft 358 kts 274°
2026-05-06 13:43 34.68491 33.22772 11127 ft 374 kts 274°
2026-05-06 13:43 34.68624 33.19574 11468 ft 383 kts 274°
2026-05-06 13:43 34.68753 33.16324 11993 ft 386 kts 274°
2026-05-06 13:44 34.68880 33.13060 12632 ft 386 kts 274°
2026-05-06 13:44 34.69007 33.09798 13237 ft 388 kts 274°
2026-05-06 13:44 34.69135 33.06507 13732 ft 392 kts 274°
2026-05-06 13:44 34.69263 33.03189 14202 ft 394 kts 274°
2026-05-06 13:45 34.69391 32.99856 14698 ft 396 kts 274°
2026-05-06 13:45 34.69645 32.93152 15685 ft 399 kts 274°
2026-05-06 13:45 34.69771 32.89817 16146 ft 400 kts 274°
2026-05-06 13:46 34.69897 32.86430 16637 ft 401 kts 274°
2026-05-06 13:46 34.70023 32.83033 17082 ft 404 kts 274°
2026-05-06 13:46 34.70149 32.79614 17524 ft 406 kts 274°
2026-05-06 13:46 34.70275 32.76181 17969 ft 408 kts 274°
2026-05-06 13:47 34.70400 32.72731 18404 ft 409 kts 274°
2026-05-06 13:47 34.70525 32.69269 18752 ft 411 kts 274°
2026-05-06 13:47 34.70652 32.65793 19142 ft 412 kts 274°
2026-05-06 13:47 34.70779 32.62311 19555 ft 412 kts 274°
2026-05-06 13:48 34.70907 32.58818 19908 ft 414 kts 274°
2026-05-06 13:48 34.71033 32.55309 20278 ft 415 kts 274°
2026-05-06 13:48 34.71158 32.51801 20663 ft 416 kts 274°
2026-05-06 13:48 34.71205 32.48271 21032 ft 419 kts 270°
2026-05-06 13:49 34.71055 32.44729 21395 ft 421 kts 268°
2026-05-06 13:49 34.70830 32.41179 21744 ft 422 kts 268°
2026-05-06 13:49 34.70590 32.37619 22083 ft 423 kts 268°
2026-05-06 13:49 34.70360 32.34054 22445 ft 423 kts 268°
2026-05-06 13:50 34.70145 32.30475 22744 ft 425 kts 268°
2026-05-06 13:50 34.69940 32.26879 23027 ft 427 kts 269°
2026-05-06 13:50 34.69742 32.23268 23309 ft 429 kts 269°
2026-05-06 13:50 34.69612 32.20872 23536 ft 430 kts 269°
2026-05-06 13:51 34.69415 32.17247 23807 ft 431 kts 269°
2026-05-06 13:51 34.69216 32.13607 24060 ft 432 kts 269°
2026-05-06 13:51 34.69016 32.09958 24313 ft 433 kts 269°
2026-05-06 13:51 34.68813 32.06303 24563 ft 435 kts 269°
2026-05-06 13:52 34.68608 32.02619 24733 ft 438 kts 269°
2026-05-06 13:52 34.68401 31.98921 24983 ft 439 kts 269°
2026-05-06 13:52 34.68238 31.95219 25256 ft 438 kts 273°
2026-05-06 13:52 34.68562 31.91544 25498 ft 437 kts 283°
2026-05-06 13:53 34.69345 31.87986 25776 ft 436 kts 289°
2026-05-06 13:53 34.70501 31.84590 26118 ft 434 kts 298°
2026-05-06 13:53 34.72035 31.81422 26515 ft 432 kts 300°
2026-05-06 13:53 34.73566 31.78347 26872 ft 431 kts 301°
2026-05-06 13:54 34.75133 31.75190 27221 ft 430 kts 300°
2026-05-06 13:54 34.76668 31.72075 27595 ft 429 kts 300°
2026-05-06 13:54 34.78194 31.68962 27983 ft 427 kts 300°
2026-05-06 13:54 34.79706 31.65861 28386 ft 425 kts 300°
2026-05-06 13:55 34.81191 31.62805 28786 ft 424 kts 300°
2026-05-06 13:55 34.82688 31.59718 29206 ft 422 kts 300°
2026-05-06 13:55 34.84175 31.56647 29614 ft 421 kts 300°
2026-05-06 13:55 34.85659 31.53581 30013 ft 420 kts 300°
2026-05-06 13:56 34.87140 31.50517 30352 ft 419 kts 300°
2026-05-06 13:56 34.88615 31.47464 30635 ft 418 kts 300°
2026-05-06 13:56 34.90089 31.44409 30933 ft 418 kts 300°
2026-05-06 13:56 34.91560 31.41361 31247 ft 416 kts 300°
2026-05-06 13:57 34.93027 31.38318 31543 ft 416 kts 300°
2026-05-06 13:57 34.94488 31.35283 31823 ft 415 kts 300°
2026-05-06 13:57 34.95947 31.32251 32109 ft 414 kts 300°
2026-05-06 13:57 34.97403 31.29221 32396 ft 413 kts 299°
2026-05-06 13:58 34.98855 31.26197 32660 ft 413 kts 299°
2026-05-06 13:58 35.00289 31.23208 32919 ft 412 kts 300°
2026-05-06 13:58 35.01732 31.20199 33247 ft 410 kts 299°
2026-05-06 13:58 35.03168 31.17202 33529 ft 409 kts 299°
2026-05-06 13:59 35.04603 31.14203 33757 ft 409 kts 299°
2026-05-06 13:59 35.06038 31.11202 33987 ft 408 kts 299°
2026-05-06 13:59 35.08906 31.05194 34086 ft 410 kts 299°
2026-05-06 14:00 35.11774 30.99178 34072 ft 409 kts 299°
2026-05-06 14:00 35.14629 30.93180 34066 ft 408 kts 299°
2026-05-06 14:01 35.17519 30.87212 34055 ft 407 kts 303°
2026-05-06 14:01 35.21215 30.81959 34065 ft 408 kts 311°
2026-05-06 14:02 35.25117 30.76926 34064 ft 408 kts 311°
2026-05-06 14:02 35.29001 30.71867 34057 ft 407 kts 311°
2026-05-06 14:03 35.32872 30.66799 34058 ft 407 kts 311°
2026-05-06 14:03 35.36739 30.61724 34055 ft 408 kts 311°
2026-05-06 14:04 35.40584 30.56669 34056 ft 408 kts 310°
2026-05-06 14:04 35.44452 30.51578 34055 ft 408 kts 310°
2026-05-06 14:05 35.48326 30.46469 34062 ft 409 kts 311°
2026-05-06 14:05 35.52201 30.41353 34058 ft 409 kts 311°
2026-05-06 14:06 35.56076 30.36228 34058 ft 409 kts 311°
2026-05-06 14:06 35.59943 30.31107 34053 ft 409 kts 311°
2026-05-06 14:07 35.63809 30.25979 34051 ft 408 kts 311°
2026-05-06 14:07 35.67667 30.20854 34055 ft 408 kts 311°
2026-05-06 14:08 35.71523 30.15723 34054 ft 408 kts 311°
2026-05-06 14:08 35.75377 30.10587 34044 ft 408 kts 311°
2026-05-06 14:09 35.79217 30.05462 34052 ft 406 kts 311°
2026-05-06 14:09 35.83028 30.00321 34057 ft 406 kts 308°
2026-05-06 14:10 35.86169 29.94561 34057 ft 405 kts 302°
2026-05-06 14:10 35.89168 29.88681 34057 ft 405 kts 302°
2026-05-06 14:11 35.92180 29.82810 34054 ft 405 kts 302°
2026-05-06 14:11 35.95192 29.76951 34051 ft 404 kts 302°
2026-05-06 14:12 35.98206 29.71084 34062 ft 404 kts 302°
2026-05-06 14:12 36.01214 29.65219 34059 ft 404 kts 302°
2026-05-06 14:13 36.04222 29.59342 34058 ft 405 kts 302°
2026-05-06 14:13 36.07228 29.53460 34037 ft 405 kts 303°
2026-05-06 14:14 36.10228 29.47578 34053 ft 404 kts 303°
2026-05-06 14:14 36.13219 29.41703 34059 ft 403 kts 302°
2026-05-06 14:15 36.16205 29.35832 34060 ft 403 kts 302°
2026-05-06 14:15 36.19608 29.30344 34062 ft 403 kts 314°
2026-05-06 14:16 36.23882 29.25837 34074 ft 404 kts 318°
2026-05-06 14:16 36.28200 29.21375 34059 ft 405 kts 318°
2026-05-06 14:17 36.32507 29.16870 34061 ft 405 kts 318°
2026-05-06 14:17 36.36802 29.12347 34057 ft 405 kts 318°
2026-05-06 14:18 36.41098 29.07812 34058 ft 405 kts 318°
2026-05-06 14:18 36.45371 29.03295 34058 ft 405 kts 318°
2026-05-06 14:19 36.49667 28.98749 34054 ft 405 kts 317°
2026-05-06 14:19 36.53960 28.94199 34069 ft 405 kts 318°
2026-05-06 14:20 36.58247 28.89648 34050 ft 404 kts 318°
2026-05-06 14:20 36.62522 28.85103 34052 ft 404 kts 318°
2026-05-06 14:21 36.66800 28.80549 34052 ft 404 kts 318°
2026-05-06 14:21 36.71069 28.76007 34046 ft 403 kts 318°
2026-05-06 14:22 36.75346 28.71483 34048 ft 403 kts 318°
2026-05-06 14:22 36.79590 28.66989 34052 ft 403 kts 318°
2026-05-06 14:23 36.83867 28.62450 34065 ft 403 kts 318°
2026-05-06 14:23 36.88130 28.57918 34057 ft 402 kts 319°
2026-05-06 14:24 36.92383 28.53388 34056 ft 401 kts 319°
2026-05-06 14:24 36.96633 28.48855 34040 ft 401 kts 318°
2026-05-06 14:25 37.00875 28.44323 34047 ft 402 kts 318°
2026-05-06 14:25 37.05124 28.39777 34047 ft 402 kts 318°
2026-05-06 14:26 37.09366 28.35218 34038 ft 402 kts 318°
2026-05-06 14:26 37.13571 28.30616 34048 ft 401 kts 318°
2026-05-06 14:27 37.17758 28.26060 34056 ft 401 kts 319°
2026-05-06 14:27 37.21999 28.21523 34059 ft 400 kts 319°
2026-05-06 14:28 37.26229 28.16985 34047 ft 400 kts 319°
2026-05-06 14:28 37.30460 28.12431 34057 ft 400 kts 318°
2026-05-06 14:29 37.34672 28.07847 34048 ft 400 kts 318°
2026-05-06 14:29 37.38869 28.03250 34050 ft 400 kts 318°
2026-05-06 14:30 37.43076 27.98638 34066 ft 400 kts 318°
2026-05-06 14:30 37.47277 27.94029 34057 ft 401 kts 318°
2026-05-06 14:31 37.51480 27.89412 34044 ft 401 kts 318°
2026-05-06 14:31 37.55691 27.84778 34039 ft 402 kts 318°
2026-05-06 14:32 37.59870 27.80172 34033 ft 401 kts 318°
2026-05-06 14:32 37.64069 27.75538 34035 ft 401 kts 318°
2026-05-06 14:33 37.67585 27.71652 34031 ft 401 kts 318°
2026-05-06 14:33 37.71782 27.67005 34031 ft 401 kts 318°
2026-05-06 14:34 37.75984 27.62347 34044 ft 402 kts 318°
2026-05-06 14:34 37.80192 27.57674 34057 ft 402 kts 318°
2026-05-06 14:35 37.84393 27.53000 34067 ft 402 kts 318°
2026-05-06 14:35 37.88595 27.48321 34071 ft 402 kts 318°
2026-05-06 14:36 37.92802 27.43689 34079 ft 400 kts 319°
2026-05-06 14:36 37.97024 27.39064 34041 ft 401 kts 319°
2026-05-06 14:37 38.01247 27.34424 34047 ft 401 kts 319°
2026-05-06 14:37 38.05467 27.29779 34061 ft 402 kts 319°
2026-05-06 14:38 38.09666 27.25145 34049 ft 402 kts 319°
2026-05-06 14:38 38.13892 27.20471 34044 ft 403 kts 319°
2026-05-06 14:39 38.18116 27.15794 34029 ft 403 kts 319°
2026-05-06 14:39 38.22345 27.11104 34046 ft 403 kts 319°
2026-05-06 14:40 38.26576 27.06404 34049 ft 404 kts 319°
2026-05-06 14:40 38.30811 27.01693 34062 ft 404 kts 319°
2026-05-06 14:41 38.35054 26.96993 34055 ft 404 kts 319°
2026-05-06 14:41 38.39315 26.92298 34046 ft 405 kts 319°
2026-05-06 14:42 38.43577 26.87593 34048 ft 405 kts 319°
2026-05-06 14:42 38.47837 26.82877 34049 ft 405 kts 319°
2026-05-06 14:43 38.52095 26.78154 34054 ft 406 kts 319°
2026-05-06 14:43 38.56361 26.73415 34061 ft 406 kts 319°
2026-05-06 14:44 38.60627 26.68668 34067 ft 406 kts 319°
2026-05-06 14:45 38.66994 26.61567 34059 ft 406 kts 319°
2026-05-06 14:45 38.71251 26.56810 34061 ft 406 kts 319°
2026-05-06 14:46 38.75508 26.52045 34058 ft 407 kts 319°
2026-05-06 14:46 38.79778 26.47258 34073 ft 408 kts 319°
2026-05-06 14:47 38.83966 26.42562 34042 ft 399 kts 320°
2026-05-06 14:47 38.86044 26.40291 34057 ft 386 kts 320°
2026-05-06 14:47 38.88072 26.38107 34066 ft 375 kts 320°
2026-05-06 14:48 38.91970 26.33924 34053 ft 356 kts 320°
2026-05-06 14:48 38.95670 26.29938 34050 ft 339 kts 320°
2026-05-06 14:49 38.99200 26.26121 34050 ft 324 kts 320°
2026-05-06 14:49 39.02609 26.22427 34005 ft 323 kts 320°
2026-05-06 14:50 39.06072 26.18667 34068 ft 330 kts 320°
2026-05-06 14:50 39.09595 26.14837 34080 ft 338 kts 320°
2026-05-06 14:51 39.13231 26.10877 34085 ft 347 kts 320°
2026-05-06 14:51 39.16958 26.06813 34085 ft 356 kts 320°
2026-05-06 14:52 39.20787 26.02632 34076 ft 365 kts 320°
2026-05-06 14:52 39.24701 25.98351 34081 ft 373 kts 320°
2026-05-06 14:53 39.28706 25.93964 34061 ft 382 kts 320°
2026-05-06 14:53 39.32793 25.89480 34079 ft 389 kts 320°
2026-05-06 14:54 39.36955 25.84906 34084 ft 396 kts 320°
2026-05-06 14:54 39.40953 25.80505 34082 ft 403 kts 320°
2026-05-06 14:55 39.45256 25.75761 34084 ft 410 kts 320°
2026-05-06 14:55 39.49624 25.70937 34075 ft 415 kts 320°
2026-05-06 14:56 39.54020 25.66074 34064 ft 416 kts 320°
2026-05-06 14:56 39.58424 25.61194 34063 ft 416 kts 320°
2026-05-06 14:57 39.62825 25.56309 34066 ft 417 kts 320°
2026-05-06 14:57 39.67228 25.51411 34060 ft 417 kts 319°
2026-05-06 14:58 39.71631 25.46507 34067 ft 417 kts 320°
2026-05-06 14:58 39.76026 25.41602 34059 ft 416 kts 320°
2026-05-06 14:59 39.80417 25.36693 34062 ft 416 kts 320°
2026-05-06 14:59 39.84776 25.31812 34053 ft 416 kts 319°
2026-05-06 15:00 39.89160 25.26894 34054 ft 416 kts 319°
2026-05-06 15:00 39.93535 25.21956 34048 ft 416 kts 319°
2026-05-06 15:01 39.97857 25.16925 34054 ft 416 kts 318°
2026-05-06 15:01 40.02158 25.11877 34047 ft 416 kts 318°
2026-05-06 15:02 40.06468 25.06821 34054 ft 416 kts 318°
2026-05-06 15:02 40.10777 25.01767 34055 ft 416 kts 318°
2026-05-06 15:03 40.15085 24.96708 34049 ft 416 kts 318°
2026-05-06 15:03 40.19400 24.91633 34056 ft 417 kts 318°
2026-05-06 15:04 40.23716 24.86549 34052 ft 418 kts 318°
2026-05-06 15:04 40.28039 24.81446 34062 ft 418 kts 318°
2026-05-06 15:05 40.32364 24.76332 34050 ft 419 kts 318°
2026-05-06 15:05 40.36663 24.71238 34050 ft 419 kts 317°
2026-05-06 15:06 40.40983 24.66112 34056 ft 419 kts 317°
2026-05-06 15:06 40.45305 24.60973 34046 ft 419 kts 317°
2026-05-06 15:07 40.49651 24.55797 34047 ft 419 kts 317°
2026-05-06 15:07 40.53934 24.50686 34046 ft 418 kts 317°
2026-05-06 15:08 40.58269 24.45504 34046 ft 418 kts 317°
2026-05-06 15:08 40.62549 24.40378 34042 ft 418 kts 317°
2026-05-06 15:09 40.66854 24.35212 34042 ft 418 kts 317°
2026-05-06 15:09 40.71158 24.30039 34045 ft 419 kts 317°
2026-05-06 15:10 40.75469 24.24848 34040 ft 420 kts 317°
2026-05-06 15:10 40.79783 24.19643 34039 ft 421 kts 317°
2026-05-06 15:11 40.84107 24.14418 34047 ft 422 kts 317°
2026-05-06 15:11 40.88434 24.09178 34025 ft 422 kts 317°
2026-05-06 15:12 40.92759 24.03932 34025 ft 422 kts 317°
2026-05-06 15:12 40.96363 23.99552 34028 ft 424 kts 317°
2026-05-06 15:13 41.00709 23.94262 34031 ft 425 kts 317°
2026-05-06 15:13 41.05090 23.88918 34023 ft 426 kts 317°
2026-05-06 15:14 41.09411 23.83639 34020 ft 426 kts 317°
2026-05-06 15:14 41.13766 23.78308 34004 ft 425 kts 317°
2026-05-06 15:15 41.18111 23.72979 34013 ft 425 kts 317°
2026-05-06 15:15 41.22454 23.67641 34015 ft 426 kts 316°
2026-05-06 15:16 41.26803 23.62286 34018 ft 426 kts 316°
2026-05-06 15:16 41.31157 23.56915 34022 ft 427 kts 316°
2026-05-06 15:17 41.35512 23.51533 34006 ft 427 kts 316°
2026-05-06 15:17 41.39938 23.46256 34015 ft 427 kts 323°
2026-05-06 15:18 41.45101 23.42346 34011 ft 428 kts 332°
2026-05-06 15:18 41.49914 23.39269 34022 ft 428 kts 332°
2026-05-06 15:19 41.55287 23.35810 34028 ft 428 kts 332°
2026-05-06 15:19 41.60654 23.32314 34025 ft 429 kts 332°
2026-05-06 15:20 41.66014 23.28801 34030 ft 429 kts 332°
2026-05-06 15:20 41.71374 23.25279 34025 ft 429 kts 332°
2026-05-06 15:21 41.76736 23.21749 34030 ft 429 kts 332°
2026-05-06 15:21 41.82095 23.18214 34041 ft 429 kts 332°
2026-05-06 15:22 41.87458 23.14671 34036 ft 430 kts 332°
2026-05-06 15:22 41.92818 23.11122 34032 ft 430 kts 332°
2026-05-06 15:23 41.98183 23.07565 34015 ft 429 kts 332°
2026-05-06 15:23 42.03537 23.04007 34016 ft 429 kts 332°
2026-05-06 15:24 42.08892 23.00442 34013 ft 429 kts 332°
2026-05-06 15:24 42.14235 22.96878 34009 ft 429 kts 332°
2026-05-06 15:25 42.19548 22.93328 34009 ft 429 kts 331°
2026-05-06 15:25 42.24892 22.89749 34010 ft 429 kts 331°
2026-05-06 15:26 42.30277 22.86137 34003 ft 429 kts 331°
2026-05-06 15:26 42.35627 22.82542 34012 ft 430 kts 331°
2026-05-06 15:27 42.40983 22.78935 33993 ft 430 kts 331°
2026-05-06 15:27 42.46340 22.75320 33992 ft 430 kts 331°
2026-05-06 15:28 42.51706 22.71693 33994 ft 431 kts 331°
2026-05-06 15:28 42.57027 22.68090 34005 ft 431 kts 331°
2026-05-06 15:29 42.62395 22.64447 34002 ft 431 kts 331°
2026-05-06 15:29 42.67764 22.60796 34000 ft 432 kts 331°
2026-05-06 15:30 42.73143 22.57131 33994 ft 432 kts 331°
2026-05-06 15:30 42.78522 22.53459 33997 ft 433 kts 331°
2026-05-06 15:31 42.83909 22.49776 33979 ft 433 kts 330°
2026-05-06 15:31 42.89306 22.46098 33979 ft 434 kts 330°
2026-05-06 15:32 42.97425 22.40582 33982 ft 435 kts 330°
2026-05-06 15:32 43.02837 22.36894 33972 ft 435 kts 330°
2026-05-06 15:33 43.08245 22.33198 33956 ft 435 kts 330°
2026-05-06 15:33 43.13653 22.29494 33959 ft 434 kts 330°
2026-05-06 15:34 43.19088 22.25764 33956 ft 434 kts 330°
2026-05-06 15:34 43.24459 22.22069 33948 ft 435 kts 330°
2026-05-06 15:35 43.29878 22.18336 33945 ft 436 kts 330°
2026-05-06 15:35 43.35302 22.14590 33940 ft 437 kts 330°
2026-05-06 15:36 43.40741 22.10828 33941 ft 438 kts 330°
2026-05-06 15:36 43.46196 22.07047 33941 ft 438 kts 330°
2026-05-06 15:37 43.51643 22.03264 33942 ft 438 kts 330°
2026-05-06 15:37 43.57094 21.99470 33947 ft 438 kts 330°
2026-05-06 15:38 43.62538 21.95672 33951 ft 439 kts 330°
2026-05-06 15:38 43.67983 21.91867 33948 ft 439 kts 330°
2026-05-06 15:39 43.73436 21.88048 33940 ft 439 kts 330°
2026-05-06 15:39 43.78884 21.84226 33947 ft 439 kts 330°
2026-05-06 15:40 43.84334 21.80393 33940 ft 439 kts 330°
2026-05-06 15:40 43.89776 21.76559 33943 ft 438 kts 330°
2026-05-06 15:41 43.95208 21.72723 33942 ft 438 kts 330°
2026-05-06 15:41 44.00638 21.68881 33943 ft 438 kts 330°
2026-05-06 15:42 44.06069 21.65030 33944 ft 438 kts 330°
2026-05-06 15:42 44.11510 21.61164 33951 ft 439 kts 330°
2026-05-06 15:43 44.16961 21.57282 33939 ft 440 kts 330°
2026-05-06 15:43 44.22415 21.53391 33943 ft 441 kts 330°
2026-05-06 15:44 44.27881 21.49483 33940 ft 441 kts 330°
2026-05-06 15:44 44.33345 21.45569 33949 ft 441 kts 330°
2026-05-06 15:45 44.38806 21.41648 33932 ft 441 kts 330°
2026-05-06 15:45 44.44264 21.37721 33931 ft 441 kts 330°
2026-05-06 15:46 44.49718 21.33789 33925 ft 441 kts 330°
2026-05-06 15:46 44.55163 21.29854 33933 ft 440 kts 330°
2026-05-06 15:47 44.60601 21.25917 33927 ft 440 kts 330°
2026-05-06 15:47 44.66030 21.21978 33922 ft 439 kts 329°
2026-05-06 15:48 44.71416 21.18061 33931 ft 438 kts 329°
2026-05-06 15:48 44.76834 21.14113 33923 ft 439 kts 329°
2026-05-06 15:49 44.82286 21.10132 33927 ft 438 kts 329°
2026-05-06 15:49 44.87666 21.06194 33929 ft 439 kts 329°
2026-05-06 15:50 44.93088 21.02218 33929 ft 440 kts 329°
2026-05-06 15:50 44.98525 20.98222 33927 ft 441 kts 329°
2026-05-06 15:51 45.03971 20.94210 33933 ft 441 kts 329°
2026-05-06 15:51 45.09414 20.90192 33923 ft 442 kts 329°
2026-05-06 15:52 45.13941 20.86845 33924 ft 441 kts 329°
2026-05-06 15:52 45.19382 20.82812 33932 ft 441 kts 329°
2026-05-06 15:53 45.24822 20.78772 33929 ft 441 kts 329°
2026-05-06 15:53 45.30254 20.74729 33932 ft 441 kts 328°
2026-05-06 15:54 45.35686 20.70678 33927 ft 440 kts 328°
2026-05-06 15:54 45.41104 20.66627 33924 ft 440 kts 328°
2026-05-06 15:55 45.46516 20.62573 33930 ft 439 kts 328°
2026-05-06 15:55 45.51920 20.58515 33934 ft 439 kts 328°
2026-05-06 15:56 45.57329 20.54445 33913 ft 439 kts 328°
2026-05-06 15:56 45.62740 20.50364 33925 ft 439 kts 328°
2026-05-06 15:57 45.68149 20.46276 33912 ft 439 kts 328°
2026-05-06 15:57 45.73560 20.42177 33930 ft 439 kts 328°
2026-05-06 15:58 45.78938 20.38095 33920 ft 440 kts 328°
2026-05-06 15:58 45.84381 20.33953 33925 ft 440 kts 328°
2026-05-06 15:59 45.89751 20.29858 33925 ft 440 kts 328°
2026-05-06 15:59 45.95158 20.25726 33923 ft 440 kts 328°
2026-05-06 16:00 46.00568 20.21582 33923 ft 440 kts 328°
2026-05-06 16:00 46.05979 20.17428 33919 ft 441 kts 327°
2026-05-06 16:01 46.11390 20.13265 33917 ft 441 kts 327°
2026-05-06 16:01 46.16803 20.09093 33919 ft 441 kts 328°
2026-05-06 16:02 46.22301 20.05112 33915 ft 443 kts 329°
2026-05-06 16:02 46.27851 20.01251 33920 ft 442 kts 330°
2026-05-06 16:03 46.33389 19.97373 33912 ft 442 kts 329°
2026-05-06 16:03 46.38757 19.93574 33909 ft 442 kts 329°
2026-05-06 16:04 46.44271 19.89649 33911 ft 441 kts 329°
2026-05-06 16:04 46.49779 19.85716 33917 ft 441 kts 329°
2026-05-06 16:05 46.55283 19.81777 33909 ft 440 kts 329°
2026-05-06 16:05 46.60774 19.77839 33920 ft 440 kts 329°
2026-05-06 16:06 46.66269 19.73889 33910 ft 440 kts 329°
2026-05-06 16:06 46.71765 19.69929 33922 ft 441 kts 329°
2026-05-06 16:07 46.77260 19.65962 33905 ft 441 kts 329°
2026-05-06 16:07 46.82761 19.61982 33904 ft 441 kts 328°
2026-05-06 16:08 46.88257 19.57996 33904 ft 440 kts 328°
2026-05-06 16:08 46.93748 19.54003 33901 ft 441 kts 328°
2026-05-06 16:09 46.99246 19.49997 33912 ft 441 kts 328°
2026-05-06 16:09 47.04745 19.45980 33902 ft 442 kts 328°
2026-05-06 16:10 47.10244 19.41955 33893 ft 442 kts 328°
2026-05-06 16:10 47.15742 19.37921 33889 ft 441 kts 328°
2026-05-06 16:11 47.21235 19.33881 33899 ft 441 kts 328°
2026-05-06 16:11 47.26733 19.29827 33900 ft 442 kts 328°
2026-05-06 16:12 47.32236 19.25761 33887 ft 443 kts 328°
2026-05-06 16:12 47.37751 19.21676 33879 ft 444 kts 328°
2026-05-06 16:13 47.43278 19.17572 33898 ft 445 kts 328°
2026-05-06 16:13 47.48806 19.13458 33902 ft 445 kts 328°
2026-05-06 16:14 47.54342 19.09330 33887 ft 446 kts 328°
2026-05-06 16:14 47.59874 19.05193 33881 ft 446 kts 328°
2026-05-06 16:15 47.65414 19.01041 33881 ft 446 kts 328°
2026-05-06 16:15 47.70949 18.96882 33875 ft 446 kts 328°
2026-05-06 16:16 47.76478 18.92720 33881 ft 445 kts 328°
2026-05-06 16:16 47.81998 18.88552 33885 ft 445 kts 327°
2026-05-06 16:17 47.87484 18.84401 33872 ft 445 kts 328°
2026-05-06 16:17 47.93032 18.80193 33873 ft 444 kts 328°
2026-05-06 16:18 47.98537 18.76007 33876 ft 444 kts 327°
2026-05-06 16:18 48.03999 18.71845 33865 ft 443 kts 327°
2026-05-06 16:19 48.09487 18.67652 33855 ft 442 kts 327°
2026-05-06 16:19 48.14959 18.63460 33871 ft 441 kts 327°
2026-05-06 16:20 48.20426 18.59263 33858 ft 441 kts 327°
2026-05-06 16:20 48.25884 18.55063 33866 ft 441 kts 326°
2026-05-06 16:21 48.31347 18.50848 33859 ft 441 kts 326°
2026-05-06 16:21 48.36799 18.46631 33852 ft 441 kts 326°
2026-05-06 16:22 48.42256 18.42401 33856 ft 441 kts 326°
2026-05-06 16:22 48.47722 18.38154 33845 ft 442 kts 326°
2026-05-06 16:23 48.53187 18.33897 33846 ft 442 kts 326°
2026-05-06 16:23 48.58650 18.29631 33836 ft 442 kts 326°
2026-05-06 16:24 48.62816 18.26370 33827 ft 443 kts 326°
2026-05-06 16:24 48.68291 18.22075 33826 ft 443 kts 326°
2026-05-06 16:25 48.73765 18.17772 33819 ft 443 kts 326°
2026-05-06 16:25 48.79243 18.13454 33837 ft 445 kts 325°
2026-05-06 16:26 48.84743 18.09108 33833 ft 446 kts 325°
2026-05-06 16:26 48.90257 18.04738 33812 ft 447 kts 325°
2026-05-06 16:27 48.95778 18.00355 33814 ft 448 kts 325°
2026-05-06 16:27 49.01305 17.95956 33826 ft 448 kts 325°
2026-05-06 16:28 49.06859 17.91604 33811 ft 449 kts 326°
2026-05-06 16:28 49.12448 17.87331 33806 ft 449 kts 326°
2026-05-06 16:29 49.18032 17.83054 33796 ft 449 kts 326°
2026-05-06 16:29 49.22668 17.79484 33806 ft 448 kts 325°
2026-05-06 16:30 49.27331 17.75877 33821 ft 448 kts 326°
2026-05-06 16:30 49.33840 17.70824 33798 ft 449 kts 326°
2026-05-06 16:31 49.39388 17.66506 33800 ft 450 kts 326°
2026-05-06 16:31 49.44965 17.62155 33801 ft 450 kts 325°
2026-05-06 16:32 49.50545 17.57791 33797 ft 450 kts 325°
2026-05-06 16:32 49.56120 17.53419 33807 ft 450 kts 326°
2026-05-06 16:33 49.61698 17.49034 33794 ft 450 kts 326°
2026-05-06 16:34 49.70064 17.42435 33790 ft 450 kts 326°
2026-05-06 16:34 49.75636 17.38026 33808 ft 450 kts 325°
2026-05-06 16:35 49.81219 17.33596 33798 ft 450 kts 325°
2026-05-06 16:35 49.86801 17.29155 33794 ft 451 kts 325°
2026-05-06 16:36 49.92388 17.24700 33793 ft 452 kts 325°
2026-05-06 16:36 49.97984 17.20225 33784 ft 452 kts 325°
2026-05-06 16:37 50.03574 17.15744 33791 ft 452 kts 324°
2026-05-06 16:37 50.09173 17.11241 33798 ft 454 kts 324°
2026-05-06 16:38 50.14783 17.06722 33785 ft 453 kts 324°
2026-05-06 16:38 50.20391 17.02190 33789 ft 454 kts 324°
2026-05-06 16:39 50.26007 16.97639 33773 ft 454 kts 324°
2026-05-06 16:39 50.31572 16.93120 33800 ft 453 kts 324°
2026-05-06 16:40 50.37180 16.88550 33796 ft 455 kts 324°
2026-05-06 16:40 50.42811 16.83947 33787 ft 457 kts 325°
2026-05-06 16:41 50.48452 16.79327 33793 ft 458 kts 325°
2026-05-06 16:41 50.54116 16.74676 33778 ft 460 kts 325°
2026-05-06 16:42 50.59790 16.70005 33774 ft 461 kts 325°
2026-05-06 16:42 50.65472 16.65314 33776 ft 461 kts 325°
2026-05-06 16:43 50.71154 16.60610 33778 ft 460 kts 325°
2026-05-06 16:43 50.76821 16.55905 33782 ft 460 kts 325°
2026-05-06 16:44 50.82489 16.51185 33779 ft 461 kts 325°
2026-05-06 16:44 50.88165 16.46446 33784 ft 461 kts 325°
2026-05-06 16:45 50.93844 16.41691 33778 ft 462 kts 325°
2026-05-06 16:45 50.99531 16.36916 33779 ft 462 kts 325°
2026-05-06 16:46 51.05216 16.32131 33775 ft 463 kts 325°
2026-05-06 16:46 51.10902 16.27329 33780 ft 463 kts 325°
2026-05-06 16:47 51.16600 16.22505 33783 ft 464 kts 325°
2026-05-06 16:47 51.22307 16.17659 33781 ft 464 kts 325°
2026-05-06 16:48 51.28008 16.12805 33776 ft 465 kts 325°
2026-05-06 16:48 51.33723 16.07926 33775 ft 465 kts 325°
2026-05-06 16:49 51.39391 16.03072 33783 ft 465 kts 324°
2026-05-06 16:49 51.45095 15.98173 33794 ft 466 kts 325°
2026-05-06 16:50 51.50809 15.93251 33796 ft 467 kts 325°
2026-05-06 16:50 51.56534 15.88307 33789 ft 467 kts 325°
2026-05-06 16:51 51.62273 15.83336 33795 ft 468 kts 325°
2026-05-06 16:51 51.68015 15.78348 33795 ft 469 kts 325°
2026-05-06 16:52 51.73757 15.73363 33796 ft 469 kts 326°
2026-05-06 16:52 51.79565 15.68527 33809 ft 470 kts 327°
2026-05-06 16:53 51.85388 15.63739 33801 ft 469 kts 327°
2026-05-06 16:53 51.91181 15.58940 33803 ft 467 kts 326°
2026-05-06 16:54 51.96961 15.54116 33808 ft 466 kts 326°
2026-05-06 16:54 52.02718 15.49289 33809 ft 465 kts 326°
2026-05-06 16:55 52.08470 15.44451 33811 ft 465 kts 326°
2026-05-06 16:55 52.14214 15.39608 33825 ft 465 kts 326°
2026-05-06 16:56 52.19956 15.34752 33816 ft 465 kts 326°
2026-05-06 16:56 52.25669 15.29907 33822 ft 466 kts 326°
2026-05-06 16:57 52.31425 15.25010 33827 ft 467 kts 326°
2026-05-06 16:57 52.37229 15.20058 33820 ft 468 kts 326°
2026-05-06 16:58 52.43010 15.15112 33821 ft 469 kts 326°
2026-05-06 16:58 52.48753 15.10184 33822 ft 470 kts 326°
2026-05-06 16:58 52.51626 15.07715 33672 ft 461 kts 328°
2026-05-06 16:59 52.54444 15.05293 33730 ft 454 kts 327°
2026-05-06 16:59 52.60026 15.00476 33829 ft 454 kts 327°
2026-05-06 17:00 52.65631 14.95617 33827 ft 456 kts 327°
2026-05-06 17:00 52.71263 14.90725 33840 ft 458 kts 327°
2026-05-06 17:01 52.76947 14.85774 33839 ft 459 kts 327°
2026-05-06 17:01 52.82565 14.80868 34078 ft 460 kts 326°
2026-05-06 17:01 52.85411 14.78376 33972 ft 465 kts 326°
2026-05-06 17:02 52.88279 14.75859 33921 ft 467 kts 326°
2026-05-06 17:02 52.94052 14.70785 33841 ft 471 kts 326°
2026-05-06 17:03 52.99849 14.65679 33840 ft 471 kts 326°
2026-05-06 17:03 53.05646 14.60557 33832 ft 471 kts 326°
2026-05-06 17:04 53.11431 14.55428 33858 ft 470 kts 326°
2026-05-06 17:04 53.17200 14.50294 33842 ft 469 kts 326°
2026-05-06 17:05 53.22954 14.45160 33864 ft 468 kts 327°
2026-05-06 17:05 53.28663 14.39941 33847 ft 465 kts 323°
2026-05-06 17:06 53.34009 14.33918 33850 ft 461 kts 319°
2026-05-06 17:06 53.39236 14.27690 33874 ft 460 kts 319°
2026-05-06 17:07 53.44472 14.21498 33854 ft 461 kts 320°
2026-05-06 17:07 53.48844 14.16379 33857 ft 461 kts 320°
2026-05-06 17:08 53.54107 14.10232 33857 ft 460 kts 320°
2026-05-06 17:08 53.59369 14.04073 33863 ft 461 kts 320°
2026-05-06 17:09 53.64639 13.97881 33874 ft 462 kts 320°
2026-05-06 17:09 53.69914 13.91663 33885 ft 463 kts 320°
2026-05-06 17:10 53.75196 13.85417 33880 ft 464 kts 320°
2026-05-06 17:10 53.80487 13.79141 33876 ft 464 kts 320°
2026-05-06 17:11 53.85773 13.72851 33902 ft 464 kts 320°
2026-05-06 17:11 53.91059 13.66541 33886 ft 465 kts 320°
2026-05-06 17:12 53.96342 13.60215 33884 ft 465 kts 320°
2026-05-06 17:12 54.01615 13.53881 33898 ft 464 kts 320°
2026-05-06 17:13 54.06884 13.47532 33893 ft 464 kts 320°
2026-05-06 17:13 54.12111 13.41212 33901 ft 463 kts 320°
2026-05-06 17:14 54.17371 13.34834 33901 ft 463 kts 320°
2026-05-06 17:14 54.22619 13.28449 33912 ft 463 kts 321°
2026-05-06 17:15 54.27864 13.22047 33909 ft 463 kts 320°
2026-05-06 17:15 54.33114 13.15619 33907 ft 464 kts 321°
2026-05-06 17:16 54.38357 13.09179 33909 ft 464 kts 321°
2026-05-06 17:16 54.43212 13.03198 33888 ft 455 kts 320°
2026-05-06 17:16 54.45635 13.00214 33897 ft 442 kts 320°
2026-05-06 17:17 54.48106 12.97164 33900 ft 431 kts 320°
2026-05-06 17:17 54.52869 12.91263 33904 ft 413 kts 320°
2026-05-06 17:18 54.57441 12.85575 33905 ft 398 kts 320°
2026-05-06 17:18 54.61855 12.80069 33910 ft 385 kts 320°
2026-05-06 17:19 54.66134 12.74718 33918 ft 374 kts 320°
2026-05-06 17:19 54.70300 12.69490 33961 ft 376 kts 320°
2026-05-06 17:20 54.74611 12.64067 33945 ft 390 kts 320°
2026-05-06 17:20 54.79094 12.58402 33953 ft 403 kts 319°
2026-05-06 17:21 54.83628 12.52449 33956 ft 415 kts 319°
2026-05-06 17:21 54.88281 12.46259 33964 ft 427 kts 319°
2026-05-06 17:22 54.93071 12.39884 33963 ft 439 kts 318°
2026-05-06 17:22 54.97951 12.33388 33965 ft 450 kts 319°
2026-05-06 17:23 55.02976 12.26686 33959 ft 459 kts 319°
2026-05-06 17:23 55.08095 12.19838 33957 ft 465 kts 319°
2026-05-06 17:24 55.13225 12.12957 33958 ft 465 kts 319°
2026-05-06 17:24 55.18345 12.06062 33945 ft 464 kts 319°
2026-05-06 17:25 55.23446 11.99169 33958 ft 463 kts 318°
2026-05-06 17:25 55.28530 11.92273 33946 ft 461 kts 318°
2026-05-06 17:26 55.33598 11.85377 33954 ft 460 kts 318°
2026-05-06 17:26 55.38653 11.78475 33952 ft 459 kts 318°
2026-05-06 17:27 55.43692 11.71571 33967 ft 459 kts 317°
2026-05-06 17:27 55.48716 11.64667 33952 ft 457 kts 317°
2026-05-06 17:28 55.53383 11.58232 33949 ft 456 kts 317°
2026-05-06 17:28 55.58371 11.51332 33947 ft 455 kts 317°
2026-05-06 17:29 55.63349 11.44422 33940 ft 454 kts 317°
2026-05-06 17:29 55.68312 11.37510 33944 ft 453 kts 317°
2026-05-06 17:30 55.73269 11.30583 33943 ft 453 kts 317°
2026-05-06 17:30 55.78219 11.23645 33947 ft 454 kts 317°
2026-05-06 17:31 55.83175 11.16673 33953 ft 454 kts 317°
2026-05-06 17:31 55.88128 11.09685 33942 ft 454 kts 317°
2026-05-06 17:32 55.93081 11.02671 33943 ft 454 kts 317°
2026-05-06 17:32 55.98024 10.95649 33946 ft 454 kts 317°
2026-05-06 17:33 56.02960 10.88613 33945 ft 454 kts 317°
2026-05-06 17:33 56.07895 10.81555 33942 ft 454 kts 317°
2026-05-06 17:34 56.12824 10.74482 33947 ft 454 kts 316°
2026-05-06 17:34 56.17750 10.67388 33941 ft 454 kts 316°
2026-05-06 17:35 56.22646 10.60311 33943 ft 454 kts 316°
2026-05-06 17:35 56.27570 10.53172 33942 ft 455 kts 316°
2026-05-06 17:36 56.34954 10.42422 33940 ft 455 kts 316°
2026-05-06 17:36 56.39871 10.35232 33949 ft 455 kts 316°
2026-05-06 17:37 56.44788 10.28020 33936 ft 455 kts 315°
2026-05-06 17:37 56.49694 10.20796 33933 ft 454 kts 315°
2026-05-06 17:38 56.54595 10.13556 33943 ft 454 kts 315°
2026-05-06 17:38 56.59483 10.06309 33929 ft 453 kts 315°
2026-05-06 17:39 56.64360 9.99054 33945 ft 453 kts 315°
2026-05-06 17:39 56.69228 9.91786 33976 ft 452 kts 315°
2026-05-06 17:40 56.74084 9.84515 33963 ft 451 kts 314°
2026-05-06 17:40 56.78916 9.77253 33952 ft 449 kts 314°
2026-05-06 17:41 56.83721 9.70005 33954 ft 447 kts 314°
2026-05-06 17:41 56.88512 9.62754 33956 ft 446 kts 314°
2026-05-06 17:42 56.93283 9.55508 33959 ft 445 kts 314°
2026-05-06 17:42 56.98040 9.48257 33964 ft 445 kts 314°
2026-05-06 17:43 57.02765 9.41031 34014 ft 445 kts 314°
2026-05-06 17:43 57.07551 9.33685 33971 ft 446 kts 313°
2026-05-06 17:44 57.12306 9.26364 33969 ft 445 kts 313°
2026-05-06 17:44 57.17051 9.19033 33975 ft 445 kts 313°
2026-05-06 17:45 57.21789 9.11689 33976 ft 444 kts 313°
2026-05-06 17:45 57.26513 9.04338 33977 ft 444 kts 313°
2026-05-06 17:46 57.31232 8.96970 33980 ft 444 kts 313°
2026-05-06 17:46 57.35950 8.89578 33999 ft 445 kts 313°
2026-05-06 17:47 57.40668 8.82159 33983 ft 444 kts 313°
2026-05-06 17:47 57.45377 8.74732 33976 ft 444 kts 313°
2026-05-06 17:48 57.50045 8.67341 33978 ft 443 kts 313°
2026-05-06 17:48 57.54760 8.59850 33978 ft 443 kts 312°
2026-05-06 17:49 57.59406 8.52443 33978 ft 442 kts 312°
2026-05-06 17:49 57.64073 8.44975 33994 ft 442 kts 313°
2026-05-06 17:50 57.68741 8.37479 33977 ft 443 kts 312°
2026-05-06 17:50 57.73404 8.29966 33973 ft 442 kts 312°
2026-05-06 17:51 57.78055 8.22446 33966 ft 441 kts 312°
2026-05-06 17:51 57.82702 8.14906 33966 ft 441 kts 312°
2026-05-06 17:52 57.87337 8.07357 33971 ft 441 kts 312°
2026-05-06 17:52 57.91965 7.99795 33965 ft 440 kts 312°
2026-05-06 17:53 57.96679 7.92389 33984 ft 447 kts 319°
2026-05-06 17:53 58.02003 7.86197 33968 ft 450 kts 322°
2026-05-06 17:54 58.07388 7.80157 33965 ft 449 kts 322°
2026-05-06 17:54 58.12705 7.74080 33969 ft 448 kts 321°
2026-05-06 17:55 58.18019 7.67903 33966 ft 448 kts 321°
2026-05-06 17:55 58.23319 7.61692 33972 ft 448 kts 321°
2026-05-06 17:56 58.25754 7.58837 33982 ft 432 kts 321°
2026-05-06 17:56 58.28220 7.55968 33950 ft 400 kts 320°
2026-05-06 17:56 58.30532 7.53276 33959 ft 381 kts 320°
2026-05-06 17:56 58.32767 7.50642 33958 ft 375 kts 319°
2026-05-06 17:57 58.37128 7.45461 34008 ft 367 kts 319°
2026-05-06 17:57 58.41529 7.40194 34008 ft 381 kts 320°
2026-05-06 17:58 58.46102 7.34720 34004 ft 396 kts 320°
2026-05-06 17:58 58.50865 7.29025 34003 ft 410 kts 320°
2026-05-06 17:59 58.55767 7.23158 34022 ft 422 kts 321°
2026-05-06 17:59 58.60812 7.17099 34010 ft 433 kts 321°
2026-05-06 18:00 58.65974 7.10881 34018 ft 443 kts 321°
2026-05-06 18:00 58.71235 7.04521 34015 ft 447 kts 321°
2026-05-06 18:01 58.76489 6.98155 34016 ft 446 kts 321°
2026-05-06 18:01 58.81735 6.91765 34028 ft 446 kts 321°
2026-05-06 18:02 58.86964 6.85370 34036 ft 445 kts 321°
2026-05-06 18:02 58.92179 6.78969 34032 ft 443 kts 321°
2026-05-06 18:03 58.97372 6.72570 34031 ft 441 kts 321°
2026-05-06 18:03 59.02543 6.66175 34023 ft 441 kts 321°
2026-05-06 18:04 59.06831 6.60854 34026 ft 440 kts 321°
2026-05-06 18:04 59.09428 6.57620 33787 ft 445 kts 321°
2026-05-06 18:04 59.12037 6.54366 33400 ft 445 kts 321°
2026-05-06 18:05 59.14624 6.51141 32932 ft 439 kts 320°
2026-05-06 18:05 59.17190 6.47938 32460 ft 438 kts 320°
2026-05-06 18:05 59.19767 6.44708 31941 ft 441 kts 320°
2026-05-06 18:05 59.22352 6.41459 31450 ft 442 kts 320°
2026-05-06 18:06 59.24936 6.38210 30938 ft 442 kts 319°
2026-05-06 18:06 59.27517 6.34961 30391 ft 439 kts 319°
2026-05-06 18:06 59.30066 6.31752 29787 ft 432 kts 319°
2026-05-06 18:06 59.32575 6.28585 29162 ft 426 kts 319°
2026-05-06 18:07 59.35046 6.25461 28520 ft 420 kts 319°
2026-05-06 18:07 59.37486 6.22368 27925 ft 415 kts 319°
2026-05-06 18:07 59.39891 6.19311 27290 ft 409 kts 319°
2026-05-06 18:07 59.42261 6.16293 26719 ft 403 kts 319°
2026-05-06 18:08 59.44595 6.13312 26148 ft 398 kts 319°
2026-05-06 18:08 59.46905 6.10361 25639 ft 393 kts 319°
2026-05-06 18:08 59.49180 6.07447 25089 ft 388 kts 319°
2026-05-06 18:08 59.51426 6.04568 24541 ft 383 kts 319°
2026-05-06 18:09 59.53620 6.01750 24022 ft 378 kts 319°
2026-05-06 18:09 59.55810 5.98932 23479 ft 374 kts 320°
2026-05-06 18:09 59.57980 5.96136 22848 ft 370 kts 319°
2026-05-06 18:09 59.60125 5.93368 22233 ft 366 kts 319°
2026-05-06 18:10 59.62249 5.90625 21627 ft 363 kts 320°
2026-05-06 18:10 59.64353 5.87904 21031 ft 360 kts 320°
2026-05-06 18:10 59.66511 5.85380 20457 ft 365 kts 329°
2026-05-06 18:10 59.68999 5.84087 19880 ft 377 kts 345°
2026-05-06 18:11 59.71614 5.83645 19349 ft 377 kts 348°
2026-05-06 18:11 59.74225 5.83318 18795 ft 375 kts 348°
2026-05-06 18:11 59.76817 5.82963 18334 ft 371 kts 348°
2026-05-06 18:11 59.79345 5.82575 18155 ft 357 kts 347°
2026-05-06 18:12 59.81801 5.82176 18054 ft 354 kts 347°
2026-05-06 18:12 59.84226 5.81593 18025 ft 348 kts 343°
2026-05-06 18:12 59.86577 5.80761 17753 ft 336 kts 341°
2026-05-06 18:12 59.88819 5.79900 17493 ft 320 kts 341°
2026-05-06 18:13 59.90966 5.79072 17224 ft 307 kts 341°
2026-05-06 18:13 59.93037 5.78283 16917 ft 300 kts 341°
2026-05-06 18:13 59.95088 5.77509 16420 ft 301 kts 341°
2026-05-06 18:13 59.97142 5.76744 15953 ft 300 kts 341°
2026-05-06 18:14 59.99198 5.75986 15502 ft 300 kts 341°
2026-05-06 18:14 60.01245 5.75238 15026 ft 298 kts 342°
2026-05-06 18:14 60.03280 5.74499 14511 ft 296 kts 342°
2026-05-06 18:14 60.05292 5.73768 14055 ft 292 kts 344°
2026-05-06 18:15 60.07279 5.73045 13509 ft 289 kts 345°
2026-05-06 18:15 60.09248 5.72329 12959 ft 286 kts 346°
2026-05-06 18:15 60.11195 5.71621 12406 ft 283 kts 346°
2026-05-06 18:15 60.13128 5.70916 11873 ft 281 kts 346°
2026-05-06 18:16 60.15056 5.70297 11338 ft 279 kts 348°
2026-05-06 18:16 60.16980 5.69763 10812 ft 278 kts 349°
2026-05-06 18:16 60.18887 5.69247 10302 ft 276 kts 349°
2026-05-06 18:16 60.20785 5.68732 9773 ft 274 kts 350°
2026-05-06 18:17 60.22667 5.68217 9223 ft 272 kts 350°
2026-05-06 18:17 60.24540 5.67699 8678 ft 271 kts 350°
2026-05-06 18:17 60.26404 5.67181 8129 ft 271 kts 350°
2026-05-06 18:17 60.28246 5.66666 7575 ft 271 kts 350°
2026-05-06 18:18 60.30134 5.66136 7161 ft 266 kts 350°
2026-05-06 18:18 60.31944 5.65632 7087 ft 268 kts 350°
2026-05-06 18:18 60.33795 5.65110 7034 ft 268 kts 350°
2026-05-06 18:18 60.35629 5.64591 6993 ft 265 kts 349°
2026-05-06 18:19 60.37454 5.64065 6960 ft 263 kts 347°
2026-05-06 18:19 60.39020 5.62597 6992 ft 241 kts 312°
2026-05-06 18:19 60.39958 5.59907 6909 ft 230 kts 302°
2026-05-06 18:19 60.40847 5.57224 6650 ft 229 kts 303°
2026-05-06 18:20 60.41743 5.54582 6432 ft 227 kts 303°
2026-05-06 18:20 60.42636 5.51962 6176 ft 224 kts 303°
2026-05-06 18:20 60.43519 5.49375 5929 ft 222 kts 303°
2026-05-06 18:20 60.44395 5.46813 5677 ft 220 kts 303°
2026-05-06 18:21 60.45259 5.44264 5420 ft 219 kts 300°
2026-05-06 18:21 60.45640 5.41349 5180 ft 219 kts 262°
2026-05-06 18:21 60.45029 5.38504 5083 ft 225 kts 244°
2026-05-06 18:21 60.44757 5.35461 4999 ft 221 kts 284°
2026-05-06 18:22 60.45584 5.32904 4997 ft 224 kts 324°
2026-05-06 18:22 60.47045 5.31760 5020 ft 227 kts 338°
2026-05-06 18:22 60.48429 5.30254 5011 ft 224 kts 324°
2026-05-06 18:22 60.49643 5.28283 4967 ft 224 kts 303°
2026-05-06 18:23 60.50049 5.25369 5005 ft 219 kts 263°
2026-05-06 18:23 60.49470 5.22626 4990 ft 207 kts 239°
2026-05-06 18:23 60.48729 5.20175 4705 ft 200 kts 240°
2026-05-06 18:23 60.48043 5.17863 4416 ft 185 kts 237°
2026-05-06 18:24 60.47052 5.16278 3868 ft 188 kts 195°
2026-05-06 18:24 60.45768 5.16442 3456 ft 183 kts 173°
2026-05-06 18:24 60.44547 5.16774 3161 ft 170 kts 175°
2026-05-06 18:24 60.43405 5.17103 2909 ft 165 kts 174°
2026-05-06 18:25 60.42274 5.17468 2698 ft 164 kts 174°
2026-05-06 18:25 60.41164 5.17838 2449 ft 161 kts 173°
2026-05-06 18:25 60.40057 5.18207 2234 ft 162 kts 173°
2026-05-06 18:25 60.38945 5.18584 1994 ft 160 kts 173°
2026-05-06 18:26 60.37873 5.18946 1744 ft 152 kts 173°
2026-05-06 18:26 60.36851 5.19287 1547 ft 149 kts 173°
2026-05-06 18:26 60.35841 5.19628 1350 ft 145 kts 173°
2026-05-06 18:26 60.34832 5.19966 1141 ft 147 kts 173°
2026-05-06 18:27 60.33827 5.20304 916 ft 145 kts 173°
2026-05-06 18:27 60.32850 5.20633 709 ft 140 kts 172°
2026-05-06 18:27 60.31904 5.20951 522 ft 136 kts 172°
2026-05-06 18:27 60.30987 5.21274 315 ft 131 kts 169°
2026-05-06 18:28 60.30108 5.21570 177 ft 125 kts 171°
2026-05-06 18:28 60.29387 5.21802 153 ft 76 kts 171°
2026-05-06 18:28 60.28970 5.21936 161 ft 43 kts 168°
2026-05-06 18:28 60.28921 5.22142 158 ft 12 kts 88°
2026-05-06 18:29 60.28914 5.22228 159 ft 3 kts 78°
2026-05-06 18:29 60.28914 5.22233 159 ft 0 kts 78°
2026-05-06 18:30 60.28915 5.22242 160 ft 6 kts 75°
2026-05-06 18:31 60.28945 5.22402 166 ft 11 kts 82°
2026-05-06 18:31 60.28932 5.22531 172 ft 6 kts 107°
2026-05-06 18:31 60.28930 5.22545 172 ft 0 kts 107°
2026-05-06 18:35 60.28934 5.22538 172 ft 0 kts 108°
2026-05-06 18:35 60.28928 5.22544 172 ft 0 kts 108°
2026-05-06 18:35 60.28931 5.22546 172 ft 0 kts 108°